Change the Weather History Date:

Thursday, February 28, 2013

  Actual Average Record
Temperature  
Mean Temperature 27 °F 30 °F  
Max Temperature 36 °F 41 °F 57 °F (1992)
Min Temperature 17 °F 18 °F -11 °F (1960)
Degree Days  
Heating Degree Days 38 35  
Month to date heating degree days 1080 1127  
Since 1 July heating degree days 5708 6049  
Cooling Degree Days 0 0  
Month to date cooling degree days 0 0  
Year to date cooling degree days 0 0  
Moisture  
Dew Point 24 °F    
Average Humidity 70    
Maximum Humidity 92    
Minimum Humidity 47    
Precipitation  
Precipitation 0.03 in 0.02 in 0.30 in (1896)
Month to date precipitation 0.14 0.62  
Year to date precipitation 0.35 1.13  
Sea Level Pressure  
Sea Level Pressure 30.37 in    
Wind  
Wind Speed 1 mph (North)    
Max Wind Speed 8 mph    
Max Gust Speed 10 mph    
Visibility 6 miles    
Events Snow    
T = Trace of Precipitation, MM = Missing Value Source: NWS Daily Summary

Daily Weather History Graph

Daily Weather History Graph

Search for Another Location

Airport or City:

Trip Planner

Search our weather history database for the weather conditions in past years. The results will help you decide how hot, cold, wet, or windy it might be!

Date:

Astronomy

Feb. 28, 2013 Rise Set
Actual Time 7:15 AM MST 6:23 PM MST
Civil Twilight 6:46 AM MST 6:53 PM MST
Nautical Twilight 6:12 AM MST 7:26 PM MST
Astronomical Twilight 5:38 AM MST 8:00 PM MST
Moon 10:06 PM MST (2/28) 8:18 AM MST (2/28)
Length of Visible Light 12h 06m
Length of Day
11h 08m
Waning Gibbous, 90% of the Moon is Illuminated
Feb 28
Waning Gibbous
Mar 4
Last Quarter
Mar 11
New
Mar 19
First Quarter
Mar 27
Full

Hourly Weather History & Observations

Time (MST) Temp. Windchill Dew Point Humidity Pressure Visibility Wind Dir Wind Speed Gust Speed Precip Events Conditions
12:55 AM 21.9 °F - 12.0 °F 66% 30.39 in 10.0 mi Calm Calm - N/A   Clear
1:55 AM 19.0 °F 12.3 °F 12.0 °F 74% 30.38 in 10.0 mi NW 4.6 mph - N/A   Clear
2:55 AM 19.0 °F - 10.9 °F 71% 30.38 in 10.0 mi Calm Calm - N/A   Partly Cloudy
3:55 AM 21.0 °F 16.2 °F 12.9 °F 71% 30.38 in 10.0 mi South 3.5 mph - N/A   Overcast
4:55 AM 19.9 °F 12.1 °F 12.9 °F 74% 30.35 in 10.0 mi NNE 5.8 mph - N/A   Overcast
5:55 AM 21.0 °F - 14.0 °F 74% 30.38 in 10.0 mi Calm Calm - N/A   Overcast
6:55 AM 21.0 °F - 15.1 °F 78% 30.39 in 10.0 mi Calm Calm - N/A   Overcast
7:55 AM 21.9 °F - 15.1 °F 75% 30.41 in 10.0 mi Calm Calm - N/A   Overcast
8:55 AM 24.1 °F - 15.1 °F 69% 30.41 in 10.0 mi Calm Calm - N/A   Overcast
9:55 AM 28.0 °F - 15.1 °F 58% 30.41 in 10.0 mi Calm Calm - N/A   Overcast
10:55 AM 30.9 °F - 15.1 °F 52% 30.40 in 10.0 mi Calm Calm - N/A   Overcast
11:55 AM 34.0 °F - 17.1 °F 50% 30.39 in 10.0 mi Calm Calm - N/A   Overcast
12:55 PM 35.1 °F 30.1 °F 18.0 °F 50% 30.38 in 10.0 mi North 5.8 mph - N/A   Overcast
2:55 PM 35.1 °F - 25.0 °F 67% 30.40 in 10.0 mi Calm Calm - 0.00 in   Overcast
3:27 PM 35.6 °F 32.8 °F 26.6 °F 70% 30.30 in 1.8 mi NE 3.5 mph - 0.00 in Snow Light Snow
3:37 PM 33.8 °F - 26.6 °F 75% 30.30 in 2.5 mi Calm Calm - 0.00 in Snow Light Snow
3:44 PM 33.8 °F - 26.6 °F 75% 30.30 in 4.0 mi Calm Calm - 0.00 in Snow Light Snow
3:55 PM 34.0 °F - 27.0 °F 75% 30.39 in 4.0 mi Calm Calm - 0.00 in Snow Light Snow
4:25 PM 33.8 °F 30.8 °F 28.4 °F 81% 30.31 in 1.8 mi NNW 3.5 mph - 0.00 in Snow Light Snow
4:31 PM 33.8 °F - 28.4 °F 81% 30.31 in 2.0 mi Calm Calm - 0.01 in Snow Light Snow
4:41 PM 33.8 °F 30.8 °F 28.4 °F 81% 30.31 in 5.0 mi North 3.5 mph - 0.01 in Snow Light Snow
4:53 PM 33.8 °F 30.8 °F 28.4 °F 81% 30.31 in 1.8 mi North 3.5 mph - 0.01 in Snow Light Snow
5:10 PM 33.8 °F - 28.4 °F 81% 30.31 in 2.5 mi Calm Calm - 0.00 in Snow Light Snow
5:18 PM 33.8 °F 30.8 °F 28.4 °F 81% 30.31 in 1.8 mi North 3.5 mph - 0.00 in Snow Light Snow
5:39 PM 33.8 °F - 28.4 °F 81% 30.32 in 2.5 mi Calm Calm - 0.00 in Snow Light Snow
5:50 PM 33.8 °F - 28.4 °F 81% 30.33 in 3.0 mi Calm Calm - 0.00 in Snow Light Snow
5:55 PM 33.1 °F - 28.9 °F 85% 30.43 in 3.0 mi Calm Calm - 0.01 in Snow Light Snow
6:04 PM 33.8 °F - 28.4 °F 81% 30.33 in 2.5 mi Calm Calm - 0.00 in Snow Light Snow
6:34 PM 33.8 °F - 28.4 °F 81% 30.34 in 3.0 mi Calm Calm - 0.00 in Snow Light Snow
6:50 PM 32.0 °F - 28.4 °F 87% 30.35 in 3.0 mi Calm Calm - 0.00 in Snow Light Snow
6:55 PM 32.0 °F - 28.9 °F 88% 30.45 in 3.0 mi Calm Calm - 0.00 in Snow Light Snow
7:15 PM 32.0 °F - 30.2 °F 93% 30.35 in 2.5 mi Calm Calm - 0.01 in Snow Light Snow
7:28 PM 32.0 °F - 28.4 °F 87% 30.36 in 2.5 mi Calm Calm - 0.01 in Snow Light Snow
7:55 PM 32.0 °F - 28.9 °F 88% 30.46 in 7.0 mi Calm Calm - 0.01 in   Overcast
8:27 PM 32.0 °F - 30.2 °F 93% 30.37 in 1.8 mi Calm Calm - 0.00 in Snow Light Snow
8:40 PM 30.2 °F 26.7 °F 28.4 °F 93% 30.37 in 3.0 mi NNW 3.5 mph - 0.00 in   Overcast
9:39 PM 30.2 °F 26.7 °F 28.4 °F 93% 30.39 in 10.0 mi North 3.5 mph - N/A   Overcast
9:55 PM 30.9 °F 27.5 °F 28.0 °F 89% 30.47 in 10.0 mi NNW 3.5 mph - N/A   Overcast
10:09 PM 30.2 °F - 28.4 °F 93% 30.39 in 10.0 mi Calm Calm - N/A   Overcast
10:34 PM 30.2 °F - 28.4 °F 93% 30.40 in 10.0 mi Calm Calm - N/A   Overcast
10:55 PM 30.9 °F - 27.0 °F 85% 30.46 in 10.0 mi Calm Calm - N/A   Overcast
11:55 PM 30.0 °F - 27.0 °F 88% 30.46 in 10.0 mi Calm Calm - N/A   Overcast